Find Starlink 33751

NORAD ID: 63512 Int'l Des: 2025-071 Owner: SPXS Country: US Constellation: starlink operational
LEOCIRCULAR

Live Position

Loading 3D Globe...

About Starlink 33751

Description loading...

Upcoming Passes

Passes for default location (London). Set your location on the main map for personalized predictions.

Altitude History

Loading altitude history...

Two-Line Element Set

1 63512U 25071V 26124.05099275 .00019969 00000-0 68449-3 0 9992
2 63512 53.1616 242.8996 0001192 83.1707 276.9430 15.30201907 61220
Epoch: May 4, 2026 • Age: 13 hours

Current Status

Altitude 475.8 km
Velocity 7.63 km/s
Sub-Earth Point 26.22°N, 169.14°W
Launch Date Apr 7, 2025
Age 1 years
Type internet

Technical Details

Classification Payload
Mass 575.00 kg
Dry Mass 530.00 kg
Total Mass 575.00 kg
Length 0.30 m
Diameter 4.10 m
Span 29.00 m
Shape Box + pan
Manufacturer SPXS
Bus Type Starlink V2MO
Phase Status In Orbit
Owner/State SPXS/US

Most Searched